TimePST,TemperatureF,Dew PointF,Humidity,Sea Level PressureIn,VisibilityMPH,Wind Direction,Wind SpeedMPH,Gust SpeedMPH,PrecipitationIn,Events,Conditions,WindDirDegrees,DateUTC
9:15 AM,-9999,-9999,N/A,30.15,-9999.0,North,9.2,-,N/A,,Unknown,350,2013-02-21 17:15:00
9:35 AM,50.0,33.8,54,30.16,10.0,NNW,8.1,-,N/A,,Clear,330,2013-02-21 17:35:00
9:55 AM,51.8,35.6,54,30.16,10.0,NNW,6.9,-,N/A,,Clear,340,2013-02-21 17:55:00
10:15 AM,51.8,33.8,50,30.17,10.0,WNW,3.5,-,N/A,,Clear,300,2013-02-21 18:15:00
10:35 AM,53.6,32.0,44,30.18,10.0,NW,6.9,-,N/A,,Clear,310,2013-02-21 18:35:00
10:55 AM,55.4,35.6,47,30.18,10.0,North,6.9,-,N/A,,Clear,360,2013-02-21 18:55:00
11:15 AM,55.4,33.8,44,30.17,10.0,North,5.8,-,N/A,,Clear,350,2013-02-21 19:15:00
11:35 AM,57.2,35.6,44,30.16,10.0,NNW,5.8,-,N/A,,Clear,330,2013-02-21 19:35:00
11:55 AM,55.4,32.0,41,30.17,10.0,NW,4.6,-,N/A,,Clear,320,2013-02-21 19:55:00
12:15 PM,57.2,35.6,44,30.16,10.0,WNW,6.9,-,N/A,,Clear,300,2013-02-21 20:15:00
12:35 PM,57.2,35.6,44,30.15,10.0,NNW,6.9,-,N/A,,Clear,340,2013-02-21 20:35:00
12:55 PM,57.2,35.6,44,30.14,10.0,North,6.9,-,N/A,,Clear,350,2013-02-21 20:55:00
1:15 PM,59.0,35.6,42,30.14,10.0,NW,8.1,-,N/A,,Clear,310,2013-02-21 21:15:00
1:35 PM,59.0,35.6,42,30.14,10.0,NW,6.9,-,N/A,,Clear,320,2013-02-21 21:35:00
1:55 PM,59.0,32.0,36,30.13,10.0,NW,9.2,-,N/A,,Clear,320,2013-02-21 21:55:00
2:15 PM,59.0,32.0,36,30.13,10.0,WNW,10.4,-,N/A,,Clear,300,2013-02-21 22:15:00
2:35 PM,60.8,32.0,34,30.12,10.0,NW,6.9,-,N/A,,Clear,310,2013-02-21 22:35:00
2:55 PM,59.0,32.0,36,30.12,10.0,West,10.4,-,N/A,,Clear,280,2013-02-21 22:55:00
3:15 PM,59.0,33.8,39,30.12,10.0,West,10.4,16.1,N/A,,Clear,280,2013-02-21 23:15:00
3:35 PM,59.0,32.0,36,30.11,10.0,West,10.4,-,N/A,,Clear,270,2013-02-21 23:35:00
3:55 PM,59.0,33.8,39,30.11,10.0,West,8.1,-,N/A,,Clear,270,2013-02-21 23:55:00
4:15 PM,59.0,35.6,42,30.11,10.0,West,9.2,-,N/A,,Clear,280,2013-02-22 00:15:00
4:35 PM,59.0,33.8,39,30.11,10.0,West,6.9,-,N/A,,Clear,270,2013-02-22 00:35:00
4:55 PM,57.2,33.8,41,30.12,10.0,West,6.9,-,N/A,,Clear,270,2013-02-22 00:55:00
5:15 PM,55.4,32.0,41,30.12,10.0,West,13.8,-,N/A,,Clear,270,2013-02-22 01:15:00
5:35 PM,51.8,41.0,67,30.12,10.0,North,8.1,-,N/A,,Clear,10,2013-02-22 01:35:00
5:55 PM,50.0,39.2,66,30.12,10.0,NNE,8.1,-,N/A,,Clear,30,2013-02-22 01:55:00
6:15 PM,50.0,39.2,66,30.12,10.0,SE,3.5,-,N/A,,Clear,140,2013-02-22 02:15:00
6:35 PM,50.0,37.4,62,30.13,10.0,SE,4.6,-,N/A,,Clear,130,2013-02-22 02:35:00
6:55 PM,48.2,39.2,71,30.14,10.0,East,3.5,-,N/A,,Clear,90,2013-02-22 02:55:00
7:15 PM,44.6,41.0,87,30.14,10.0,NNE,4.6,-,N/A,,Clear,20,2013-02-22 03:15:00
7:35 PM,44.6,41.0,87,30.14,10.0,Calm,Calm,-,N/A,,Clear,0,2013-02-22 03:35:00
7:55 PM,44.6,39.2,81,30.15,10.0,Calm,Calm,-,N/A,,Clear,0,2013-02-22 03:55:00
8:15 PM,42.8,41.0,93,30.15,10.0,NNE,4.6,-,N/A,,Clear,20,2013-02-22 04:15:00
8:35 PM,39.2,39.2,100,30.15,10.0,Calm,Calm,-,N/A,,Clear,0,2013-02-22 04:35:00
8:55 PM,41.0,39.2,93,30.15,10.0,Calm,Calm,-,N/A,,Clear,0,2013-02-22 04:55:00
9:15 PM,41.0,41.0,100,30.16,10.0,Calm,Calm,-,N/A,,Clear,0,2013-02-22 05:15:00
9:35 PM,41.0,41.0,100,30.17,10.0,South,3.5,-,N/A,,Clear,190,2013-02-22 05:35:00
9:55 PM,42.8,41.0,93,30.17,10.0,Calm,Calm,-,N/A,,Clear,0,2013-02-22 05:55:00
10:15 PM,41.0,41.0,100,30.18,10.0,Calm,Calm,-,N/A,,Clear,0,2013-02-22 06:15:00
10:55 PM,41.0,39.2,93,30.18,10.0,South,4.6,-,N/A,,Clear,190,2013-02-22 06:55:00
11:15 PM,39.2,39.2,100,30.18,10.0,SW,3.5,-,N/A,,Clear,220,2013-02-22 07:15:00
11:35 PM,39.2,39.2,100,30.18,10.0,Calm,Calm,-,N/A,,Clear,0,2013-02-22 07:35:00
11:55 PM,39.2,37.4,93,30.19,10.0,Calm,Calm,-,N/A,,Clear,0,2013-02-22 07:55:00